Regional Weather Roundup
Issued by NWS

Home | Current Version | Previous Version | Text Only | Print | Product List | Glossary Off
Versions: 1 2 3 4 5 6 7 8 9 10 11 12 13 14 15 16 17 18 19 20 21 22 23 24 25 26 27 28

000
ASUS45 KBOU 260210
RWRCO

WEATHER ROUNDUP FOR COLORADO
NATIONAL WEATHER SERVICE DENVER/BOULDER CO
800 PM MDT FRI MAY 25 2018

NOTE: "FAIR" INDICATES FEW OR NO CLOUDS BELOW 12000 FEET WITH NO
SIGNIFICANT WEATHER AND/OR OBSTRUCTIONS TO VISIBILITY.

COZ001>005-013-030-031-260300-
...NORTHWEST COLORADO...

CITY           SKY/WX    TMP DP  RH WIND       PRES   REMARKS
CRAIG          FAIR      70  37  29 S6        30.01S
HAYDEN         FAIR      75  33  21 S3        30.06S
MEEKER         FAIR      74  22  14 S7        30.03R
RANGELY        FAIR      84   9   6 SW13G20   29.93S
RABBIT EARS PA FAIR      59  23  25 W5        30.38R
STEAMBOAT SPGS FAIR      74  36  25 CALM      30.08R
WALDEN         FAIR      66  28  24 W5        30.19F
$$

COZ006>008-011-260300-
...WEST CENTRAL VALLEYS...

CITY           SKY/WX    TMP DP  RH WIND       PRES   REMARKS
GRAND JUNCTION FAIR      85  17   8 W6        29.91S
MONTROSE       FAIR      82   4   5 W3G17     30.00R
EAGLE          FAIR      78  20  11 W9        30.06R
RIFLE          FAIR      82   4   5 W9        29.96S
DELTA          FAIR      87   2   4 W16       29.95S
NUCLA          FAIR      81   3   5 SW14G22   30.07R
$$

COZ017>023-064>068-260300-
...SOUTHWEST COLORADO...

CITY           SKY/WX    TMP DP  RH WIND       PRES   REMARKS
DURANGO        FAIR      78   6   6 W5        30.10F
CORTEZ         FAIR      78  20  11 SW7       30.05S
PAGOSA SPRINGS FAIR      73 -10   3 CALM      30.20S
TELLURIDE      FAIR      69   5   8 S8        30.30R
WOLF CREEK PAS FAIR      52   3  14 SW15G26   30.56R
$$

COZ009-010-012-014-032>034-037-058>063-260300-
...CENTRAL COLORADO...

CITY           SKY/WX    TMP DP  RH WIND       PRES   REMARKS
ASPEN          FAIR      72  17  12 W7        30.14R
BUENA VISTA    FAIR      74  11   9 SE8       30.15R
COPPER MTN     FAIR      59  10  14 MISG      30.50S
BERTHOUD PASS  FAIR      45  34  65 SE13      30.54F
COTTONWOOD PAS FAIR      70   1   7 S17G23    30.31S
GUNNISON       FAIR      74  16  11 NW8       30.14R
GRANBY         FAIR      67  22  17 W6        30.19R
KREMMLING      FAIR      77  16  10 W5        30.12S
LEADVILLE      FAIR      63  18  17 NW8       30.31R
MONARCH PASS   FAIR      59  12  15 MISG      30.59S
SALIDA         FAIR      79   8   6 S8        30.18R
SUNLIGHT       FAIR      54  12  19 SW9G23    30.42R
WILKERSON PASS MOCLDY    57  10  15 SW5       30.47R
$$

COZ069>075-260300-
...SAN LUIS VALLEY/SANGRE DE CRISTO MOUNTAINS...

CITY           SKY/WX    TMP DP  RH WIND       PRES   REMARKS
ALAMOSA        FAIR      73  20  13 W9        30.15R
DEL NORTE      FAIR      71  15  12 SW12      30.19S
LA VETA PASS   FAIR      63  14  15 MISG      30.47S
SAGUACHE       NOT AVBL
$$

COZ035-036-038>040-260300-
...NORTHERN COLORADO FRONT RANGE...

CITY           SKY/WX    TMP DP  RH WIND       PRES   REMARKS
DENVER INTL AP FAIR      76  37  24 E12       29.98R
AURORA         PTCLDY    77  36  22 E9        30.00R
FRONT RANGE AP PTCLDY    81  34  18 E9        30.00R
ERIE MUNI ARPT FAIR      81  28  14 E6        30.01R
BOULDER MUN AP FAIR      77  43  29 NW3       29.98R
CENTENNIAL     FAIR      79  36  21 E12       30.01R
BROOMFIELD     PTCLDY    81  30  16 NE10      30.00S
FORT COLLINS   FAIR      77  46  33 E7        29.97S
LONGMONT       FAIR      78  46  31 N6        29.98R
$$

COZ041-046-047-076>085-087-088-260300-
...PIKES PEAK/PALMER DIVIDE AND SOUTHERN FOOTHILLS...

CITY           SKY/WX    TMP DP  RH WIND       PRES   REMARKS
COLO. SPRINGS  FAIR      77  31  18 SE13      30.04R
A. F. ACADEMY  FAIR      76  28  17 SE15      30.06R
SCHRIEVER AFB  NOT AVBL
CHEYENNE MTN   FAIR      75  27  17 S21       30.06R
ELLICOTT         N/A    N/A N/A N/A SE14      30.04R
FALCON         FAIR      73  26  17 SE12      30.11R
FORT CARSON    FAIR      78  30  17 SE10      30.00R
LIMON          FAIR      74  41  30 E14       30.00R
MONUMENT HILL  FAIR      70  32  24 SE7       30.12R
CANON CITY     CLEAR     84  34  16 E10       29.96R
WALSENBURG     NOT AVBL
TRINIDAD       FAIR      78  32  18 SE10      30.00S
$$

COZ042>045-048>051-090-091-260300-
...NORTHEAST COLORADO...

CITY           SKY/WX    TMP DP  RH WIND       PRES   REMARKS
GREELEY ARPT   FAIR      75  50  41 E6        29.95R
AKRON          FAIR      74  49  41 SE8       29.95S
BURLINGTON     FAIR      76  48  37 S10       29.95S
WRAY           FAIR      79  45  29 E9        29.91R
YUMA           FAIR      79  45  29 SE7       29.93S
STERLING       FAIR      82  45  26 E3        29.90S
HOLYOKE        FAIR      81  45  28 E6        29.91S
FORT MORGAN    FAIR      75  43  30 E8        29.94S
$$

COZ086-089-092>099-260300-
...SOUTHEAST COLORADO...

CITY           SKY/WX    TMP DP  RH WIND       PRES   REMARKS
PUEBLO         FAIR      86  36  16 SE16      29.90S
LA JUNTA       FAIR      85  43  22 MISG      29.92R
LAMAR          FAIR      83  44  25 SE10      29.88S
SPRINGFIELD      N/A     77  52  41 SE10      29.96R
$$




USA.gov is the U.S. government's official web portal to all federal, state and local government web resources and services.